{"data":{"norad_id":55924,"epoch":"2026-05-25T02:44:42.851040Z","epoch_age_seconds":65947,"freshness":"FRESH","line1":"1 55924U 23037L   26145.11438485 -.00000351  00000+0 -21649-4 0  9998","line2":"2 55924  69.9998  91.9333 0003156 266.2994  93.7804 14.98331767175427","mean_motion":14.98331767,"eccentricity":0.0003156,"inclination_deg":69.9998,"raan_deg":91.9333,"arg_perigee_deg":266.2994,"mean_anomaly_deg":93.7804,"bstar":-2.1649e-5,"rev_number":17542,"period_min":96.106885785597,"perigee_km":569.8569474962,"apogee_km":574.2439057999,"semimajor_km":6950.187426648,"source":"CELESTRAK","updated_at":"2026-05-25T13:38:17.911958Z"}}